Regional Weather Roundup
Issued by NWS

Home | Current Version | Previous Version | Graphics & Text | Print | Product List | Glossary Off
Versions: 1 2 3 4 5 6 7 8 9 10 11 12 13 14 15 16 17 18 19 20 21 22 23 24 25 26 27 28 29 30 31 32 33 34 35 36 37 38 39 40 41 42 43 44 45 46 47 48 49 50

000
ASUS43 KDMX 260006
RWRIA

WEATHER ROUNDUP FOR IOWA
NATIONAL WEATHER SERVICE DES MOINES IA
700 PM CDT SAT MAR 25 2017

NOTE: "FAIR" INDICATES FEW OR NO CLOUDS BELOW 12,000 FEET WITH NO
SIGNIFICANT WEATHER AND/OR OBSTRUCTIONS TO VISIBILITY.

* - THESE STATIONS ARE NOT NWS STATIONS...THUS NOT UNDER NWS
QUALITY CONTROL.  THEY ALSO DO NOT REPORT WEATHER SUCH
AS PRECIPITATION OR FOG.

IAZ001>003-012>014-020>022-031>034-043>046-260100-
   NORTHWEST IOWA

CITY           SKY/WX    TMP DP  RH WIND       PRES   REMARKS
CARROLL *      CLOUDY    39  39 100 NE12G17   29.93R FOG     WCI  32
CHEROKEE *     CLOUDY    39  38  97 NE10      29.97S WCI  32
LE MARS *      CLOUDY    39  37  93 NE9       29.98S FOG     WCI  33
ORANGE CITY *  CLOUDY    37  37 100 E9        29.97S FOG     WCI  31
SHELDON *      CLOUDY    37  37 100 E14       29.97R FOG     WCI  29
SIOUX CITY     CLOUDY    41  39  93 NE8       29.97S
6HR MIN TEMP:  40; 6HR MAX TEMP:  41;

SPENCER        CLOUDY    38  36  92 NE13      29.98S WCI  30
6HR MIN TEMP:  38; 6HR MAX TEMP:  39;

STORM LAKE *   FOG       37  37 100 NE20      29.95S VSB 1   WCI  27
$$

IAZ055>058-069>071-079>083-090>094-260100-
   SOUTHWEST IOWA

CITY           SKY/WX    TMP DP  RH WIND       PRES   REMARKS
ATLANTIC *     CLOUDY    41  41 100 NE9       29.91S
AUDUBON *      CLOUDY    39  37  93 NE8       29.92S FOG     WCI  34
CLARINDA *     CLOUDY    43  43 100 N8        29.92S
COUNCIL BLFS * CLOUDY    41  41 100 NE8G15    29.93R FOG
CRESTON *      CLOUDY    41  41 100 NE10      29.90R
HARLAN  *      MIX PCPN  41  41 100 NE13      29.96R
LAMONI         CLOUDY    44  42  93 N9        29.87R
6HR MIN TEMP:  44; 6HR MAX TEMP:  46;

RED OAK *      CLOUDY    43  41  93 NE7       29.91S
SHENANDOAH *   CLOUDY    43  41  93 NE10      29.91S
$$

IAZ047>049-059>061-072>074-084-260100-
   CENTRAL IOWA

CITY           SKY/WX    TMP DP  RH WIND       PRES   REMARKS
AMES           CLOUDY    41  41 100 NE8       29.91F
6HR MIN TEMP:  40; 6HR MAX TEMP:  42; 6HR PCP:  0.13;

ANKENY *       CLOUDY    43  41  93 NE9       29.90F
BOONE *        CLOUDY    41  41 100 NE14      29.90S
CHARITON *     CLOUDY    43  43 100 N9        29.87R FOG
DES MOINES     CLOUDY    44  41  89 NE12      29.89S
6HR MIN TEMP:  41; 6HR MAX TEMP:  44; 6HR PCP:  0.08;

GRINNELL*      CLOUDY    42  41  96 NE10G18   29.90R FOG
MARSHALLTOWN   CLOUDY    41  41 100 NE12      29.91R
6HR MIN TEMP:  39; 6HR MAX TEMP:  42; 6HR PCP: TRACE;

NEWTON *       CLOUDY    43  41  93 NE12      29.88S
PELLA *        CLOUDY    44  43  97 NE5       29.89S FOG
PERRY *        CLOUDY    42  40  95 NE10      29.91S
$$

IAZ004>006-015-016-023>025-035-036-260100-
   NORTH CENTRAL IOWA

CITY           SKY/WX    TMP DP  RH WIND       PRES   REMARKS
ALGONA *       CLOUDY    39  39 100 NE13      29.97S WCI  32
CLARION *      CLOUDY    39  39 100 NE17G24   29.95S WCI  30
ESTHERVILLE    CLOUDY    37  37 100 NE15      29.99R FOG     WCI  28
6HR MIN TEMP:  37; 6HR MAX TEMP:  38;

FORT DODGE *   CLOUDY    39  36  87 NE13      29.95S WCI  32
MASON CITY     CLOUDY    38  36  92 NE14      29.98S FOG     WCI  30
6HR MIN TEMP:  37; 6HR MAX TEMP:  39; 6HR PCP:  0.10;

FOREST CITY *  CLOUDY    37  37 100 E8        29.98S FOG     WCI  31
WEBSTER CITY * CLOUDY    41  39  93 NE14      29.92S
IOWA FALLS *   CLOUDY    40  39  95 NE12G17   29.94S FOG     WCI  33
$$

IAZ007>011-017>019-026>030-037>042-050>054-066-260100-
   NORTHEAST IOWA

CITY           SKY/WX    TMP DP  RH WIND       PRES   REMARKS
CEDAR RAPIDS   FOG       44  44 100 E17       29.89S VSB 1/2
6HR MIN TEMP:  41; 6HR MAX TEMP:  44; 6HR PCP:  0.03;

CHARLES CITY * CLOUDY    39  39 100 NE12G18   29.97S FOG     WCI  32
CLINTON *      CLOUDY    45  44  97 NE20G25   29.91S
DECORAH *      CLOUDY    37  37 100 E17       29.98R WCI  28
DUBUQUE        FOG       40  40 100 NE15      29.94S VSB 1/4 WCI  32
6HR MIN TEMP:  40; 6HR MAX TEMP:  41; 6HR PCP:  0.05;

MONTICELLO *   CLOUDY    43  41  93 NE14      29.93S FOG
OELWEIN *      CLOUDY    39  39 100 E17G24    29.93S FOG     WCI  30
WATERLOO       CLOUDY    40  38  93 NE13      29.94S WCI  32
6HR MIN TEMP:  39; 6HR MAX TEMP:  42; 6HR PCP:  0.11;

$$

IAZ064-065-067-068-078-260100-
   EAST CENTRAL IOWA

CITY           SKY/WX    TMP DP  RH WIND       PRES   REMARKS
DAVENPORT      CLOUDY    48  46  93 E20       29.90S
6HR MIN TEMP:  46; 6HR MAX TEMP:  51;

IOWA CITY      CLOUDY    48  45  89 NE14      29.89F
6HR MIN TEMP:  44; 6HR MAX TEMP:  48; 6HR PCP:  0.04;

MUSCATINE *    CLOUDY    54  50  87 NE14      29.87S FOG
QUAD CITIES    CLOUDY    51  48  89 NE14      29.88S FOG
6HR MIN TEMP:  45; 6HR MAX TEMP:  55;

$$

IAZ062-063-075>077-085>089-095>099-260100-
   SOUTHEAST IOWA

CITY           SKY/WX    TMP DP  RH WIND       PRES   REMARKS
BURLINGTON     CLOUDY    60  56  86 E7        29.83S
6HR MIN TEMP:  50; 6HR MAX TEMP:  60;

FAIRFIELD *    FOG       48  48 100 NE9G17    29.85R VSB 1/2
FORT MADISON * CLOUDY    57  57 100 N5        29.83F
KEOKUK *       CLOUDY    57  55  94 CALM      29.82S
OSKALOOSA *    FOG       45  45  98 NE9       29.86S VSB 1/2
OTTUMWA        FOG       47  47 100 NE12      29.85S VSB 1/2
6HR MIN TEMP:  44; 6HR MAX TEMP:  48;

WASHINGTON *   FOG       50  48  93 NE15      29.87S VSB 1/4
$$

ABBREVIATIONS USED IN REMARKS
   TC - TEMPERATURES IN CELSIUS
  WCI - WIND CHILL INDEX
   HX - HEAT INDEX
  VSB - VISIBILITY
$$





USA.gov is the U.S. government's official web portal to all federal, state and local government web resources and services.